Location: Northam
(31.6525°S, 116.6655°E)
Time: 17:15:50
(UTC+08:00)

Tiros 1 - Visible Passes

Search period start: 15 June 2021 00:00
Search period end: 25 June 2021 00:00
Orbit: 630 x 664 km, 48.4° (Epoch: 14 June)

Date Brightness Start Highest point End Pass type
(mag) Time Alt. Az. Time Alt. Az. Time Alt. Az.
15 Jun 9.0 05:17:42 19° S 05:18:50 21° SSE 05:22:21 10° ESE visible
16 Jun 8.2 05:42:42 22° SSW 05:45:10 38° SSE 05:49:31 10° ENE visible
17 Jun 9.5 04:30:05 17° SE 04:30:05 17° SE 04:31:57 10° ESE visible
17 Jun 7.1 06:07:45 18° SW 06:11:15 87° SE 06:15:54 10° NE visible
18 Jun 8.3 04:55:12 35° SE 04:55:12 35° SE 04:59:12 10° E visible
18 Jun 8.0 06:32:52 10° WSW 06:37:05 36° NW 06:41:19 10° NNE visible
19 Jun 7.1 05:20:22 64° SSW 05:21:01 79° SE 05:25:40 10° NE visible
20 Jun 9.9 04:07:55 15° E 04:07:55 15° E 04:08:52 10° E visible
20 Jun 7.7 05:45:36 33° W 05:46:52 40° NW 05:51:12 10° NNE visible
21 Jun 9.0 04:33:14 28° ENE 04:33:14 28° ENE 04:35:25 10° NE visible
21 Jun 9.0 06:10:54 13° WNW 06:12:30 15° NW 06:15:13 10° NNW visible
22 Jun 8.6 04:58:34 29° N 04:58:34 29° N 05:01:04 10° NNE visible
22 Jun 9.1 19:01:58 10° N 19:03:52 16° NNE 19:03:52 16° NNE visible
23 Jun 9.2 05:23:57 15° NNW 05:23:57 15° NNW 05:25:20 10° N visible
23 Jun 8.4 19:26:14 10° NNW 19:29:15 33° N 19:29:15 33° N visible
24 Jun 9.0 18:12:03 10° NNE 18:14:56 16° NE 18:16:55 13° E visible
24 Jun 8.7 19:51:52 10° NW 19:54:36 33° WNW 19:54:36 33° WNW visible
